Date String (YYYY-MM-DD hh:mm:ss) UTC,Instrument flags,absolute air pressure of the measurement (hPa),sample flow rate (lpm),inlet stack bypass flow (lpm),air temperature of the measurement (°C),ambient temperature measured by the external sensor (°C),aerosol sample conditioner tube jacket temperature (°C),OPC LED temperature (°C),internal box temperature (°C),relative humidity of the measurement (%),span deviation,mass concentration of particles derived from Lorenz-Mie calculation of OPC scattering (μg/m³),mass concentration of particles derived from Lorenz-Mie calculation of OPC scattering (μg/m³),mass concentration of particles derived from Lorenz-Mie calculation of OPC scattering (μg/m³)
DateTimeUTC,F1_M11,P_M11,Q1_M11,Q2_M11,T1_M11,T2_M11,T3_M11,T4_M11,T5_M11,U1_M11,ZSPAN_M11,X0_M11,X2_M11,X1_M11
2023-07-20 04:00:00,SystemResetWarning,0838.5,4.99,000.00,029.2,027.4,000.0,037.6,030.8,33.5,0000.0,0012.96,0005.69,0004.75
2023-07-20 04:01:00,SystemResetWarning,0838.5,5.00,000.00,029.2,027.7,000.0,037.6,030.8,33.3,0000.0,0013.73,0005.75,0004.74
2023-07-20 04:02:00,SystemResetWarning,0838.5,5.01,000.00,029.3,027.8,000.0,037.6,030.9,33.1,0000.0,0014.23,0005.78,0004.73
2023-07-20 04:03:00,SystemResetWarning,0838.5,5.00,000.00,029.3,028.0,000.0,037.7,030.9,32.7,0000.0,0014.36,0005.87,0004.72
2023-07-20 04:04:00,SystemResetWarning,0838.4,5.01,000.00,029.3,027.9,000.0,037.7,031.0,32.5,0000.0,0014.38,0005.90,0004.71
2023-07-20 04:05:00,SystemResetWarning,0838.4,4.99,000.00,029.3,026.3,000.0,037.6,030.7,32.5,0000.0,0013.97,0005.90,0004.70
2023-07-20 04:06:00,SystemResetWarning,0838.4,5.01,000.00,029.3,025.5,000.0,037.5,030.5,32.6,0000.0,0013.88,0005.90,0004.69
2023-07-20 04:07:00,SystemResetWarning,0838.4,5.01,000.00,029.2,025.5,000.0,037.5,030.3,32.5,0000.0,0013.62,0005.85,0004.69
2023-07-20 04:08:00,SystemResetWarning,0838.4,4.99,000.00,029.1,025.8,000.0,037.5,030.4,32.6,0000.0,0013.67,0005.78,0004.69
2023-07-20 04:09:00,SystemResetWarning,0838.5,5.00,000.00,029.1,026.2,000.0,037.5,030.5,32.4,0000.0,0014.30,0005.73,0004.67
2023-07-20 04:10:00,SystemResetWarning,0838.5,5.00,000.00,029.1,026.6,000.0,037.5,030.6,32.3,0000.0,0014.24,0005.65,0004.66
2023-07-20 04:11:00,SystemResetWarning,0838.5,5.00,000.00,029.1,027.0,000.0,037.6,030.6,32.2,0000.0,0014.03,0005.59,0004.65
2023-07-20 04:12:00,SystemResetWarning,0838.5,4.99,000.00,029.1,027.3,000.0,037.6,030.7,32.0,0000.0,0013.50,0005.59,0004.64
2023-07-20 04:13:00,SystemResetWarning,0838.6,5.00,000.00,029.2,027.5,000.0,037.6,030.8,32.0,0000.0,0012.89,0005.54,0004.63
2023-07-20 04:14:00,SystemResetWarning,0838.6,5.01,000.00,029.2,027.7,000.0,037.6,030.8,32.1,0000.0,0013.18,0005.50,0004.64
2023-07-20 04:15:00,SystemResetWarning,0838.6,5.01,000.00,029.2,027.9,000.0,037.6,030.9,32.0,0000.0,0013.28,0005.53,0004.63
2023-07-20 04:16:00,SystemResetWarning,0838.6,5.00,000.00,029.3,028.0,000.0,037.6,031.0,31.9,0000.0,0013.32,0005.52,0004.63
2023-07-20 04:17:00,SystemResetWarning,0838.6,4.98,000.00,029.3,027.7,000.0,037.6,031.0,31.9,0000.0,0013.94,0005.52,0004.63
2023-07-20 04:18:00,SystemResetWarning,0838.6,5.00,000.00,029.3,026.1,000.0,037.5,030.8,31.6,0000.0,0014.34,0005.51,0004.62
2023-07-20 04:19:00,SystemResetWarning,0838.6,5.01,000.00,029.2,025.4,000.0,037.4,030.6,31.6,0000.0,0014.13,0005.54,0004.62
2023-07-20 04:20:00,SystemResetWarning,0838.6,5.00,000.00,029.1,025.6,000.0,037.5,030.4,31.7,0000.0,0014.34,0005.55,0004.61
2023-07-20 04:21:00,SystemResetWarning,0838.6,5.00,000.00,029.1,025.9,000.0,037.5,030.4,31.9,0000.0,0013.87,0005.56,0004.61
2023-07-20 04:22:00,SystemResetWarning,0838.6,5.00,000.00,029.1,026.3,000.0,037.5,030.5,32.0,0000.0,0012.95,0005.55,0004.59
2023-07-20 04:23:00,SystemResetWarning,0838.6,5.00,000.00,029.1,026.7,000.0,037.5,030.6,32.2,0000.0,0012.64,0005.50,0004.58
2023-07-20 04:24:00,SystemResetWarning,0838.6,4.99,000.00,029.1,027.0,000.0,037.5,030.7,32.3,0000.0,0012.35,0005.46,0004.56
2023-07-20 04:25:00,SystemResetWarning,0838.6,5.00,000.00,029.1,027.3,000.0,037.6,030.7,32.6,0000.0,0011.80,0005.42,0004.55
2023-07-20 04:26:00,SystemResetWarning,0838.6,5.00,000.00,029.2,027.5,000.0,037.6,030.8,32.6,0000.0,0011.55,0005.34,0004.53
2023-07-20 04:27:00,SystemResetWarning,0838.6,5.00,000.00,029.2,027.7,000.0,037.6,030.9,32.5,0000.0,0011.33,0005.28,0004.51
2023-07-20 04:28:00,SystemResetWarning,0838.6,5.00,000.00,029.2,027.9,000.0,037.6,030.9,32.4,0000.0,0010.45,0005.21,0004.49
2023-07-20 04:29:00,SystemResetWarning,0838.7,5.01,000.00,029.3,028.0,000.0,037.6,031.0,32.9,0000.0,0010.19,0005.16,0004.48
2023-07-20 04:30:00,SystemResetWarning,0838.7,5.00,000.00,029.3,028.0,000.0,037.7,031.0,33.4,0000.0,0010.71,0005.14,0004.49
2023-07-20 04:31:00,SystemResetWarning,0838.7,4.97,000.00,029.3,026.6,000.0,037.5,030.9,32.0,0000.0,0010.87,0005.14,0004.48
2023-07-20 04:32:00,SystemResetWarning,0838.7,5.02,000.00,029.3,025.6,000.0,037.5,030.7,31.8,0000.0,0010.13,0005.11,0004.47
2023-07-20 04:33:00,SystemResetWarning,0838.7,5.00,000.00,029.2,025.5,000.0,037.5,030.5,31.4,0000.0,0010.43,0005.10,0004.46
2023-07-20 04:34:00,SystemResetWarning,0838.6,4.99,000.00,029.1,025.8,000.0,037.5,030.4,31.5,0000.0,0010.50,0005.07,0004.46
2023-07-20 04:35:00,SystemResetWarning,0838.6,5.00,000.00,029.1,026.2,000.0,037.5,030.5,31.4,0000.0,0010.73,0005.05,0004.48
2023-07-20 04:36:00,SystemResetWarning,0838.6,5.00,000.00,029.1,026.6,000.0,037.5,030.6,31.4,0000.0,0010.68,0005.05,0004.48
2023-07-20 04:37:00,SystemResetWarning,0838.7,5.01,000.00,029.1,026.9,000.0,037.6,030.7,31.5,0000.0,0010.64,0005.07,0004.49
2023-07-20 04:38:00,SystemResetWarning,0838.7,5.01,000.00,029.1,027.2,000.0,037.6,030.7,31.4,0000.0,0010.69,0005.11,0004.51
2023-07-20 04:39:00,SystemResetWarning,0838.8,4.99,000.00,029.2,027.5,000.0,037.6,030.8,31.3,0000.0,0010.73,0005.13,0004.52
2023-07-20 04:40:00,SystemResetWarning,0838.8,4.99,000.00,029.2,027.7,000.0,037.6,030.9,31.3,0000.0,0010.53,0005.14,0004.53
2023-07-20 04:41:00,SystemResetWarning,0838.8,5.00,000.00,029.2,027.9,000.0,037.6,030.9,31.7,0000.0,0009.97,0005.15,0004.51
2023-07-20 04:42:00,SystemResetWarning,0838.8,5.01,000.00,029.3,028.0,000.0,037.6,031.0,31.8,0000.0,0009.07,0005.13,0004.53
2023-07-20 04:43:00,SystemResetWarning,0838.8,5.00,000.00,029.3,027.8,000.0,037.6,031.0,31.8,0000.0,0008.99,0005.11,0004.53
2023-07-20 04:44:00,SystemResetWarning,0838.8,4.98,000.00,029.3,026.3,000.0,037.5,030.9,32.1,0000.0,0008.92,0005.09,0004.53
2023-07-20 04:45:00,SystemResetWarning,0838.8,5.01,000.00,029.2,025.5,000.0,037.4,030.7,32.5,0000.0,0009.15,0005.10,0004.54
2023-07-20 04:46:00,SystemResetWarning,0838.7,5.01,000.00,029.2,025.6,000.0,037.5,030.5,32.7,0000.0,0009.08,0005.08,0004.53
2023-07-20 04:47:00,SystemResetWarning,0838.7,4.99,000.00,029.1,025.9,000.0,037.5,030.5,32.5,0000.0,0009.65,0005.11,0004.52
2023-07-20 04:48:00,SystemResetWarning,0838.7,5.00,000.00,029.1,026.3,000.0,037.5,030.5,33.0,0000.0,0009.70,0005.12,0004.51
2023-07-20 04:49:00,SystemResetWarning,0838.7,5.00,000.00,029.1,026.7,000.0,037.5,030.6,33.2,0000.0,0009.94,0005.10,0004.51
2023-07-20 04:50:00,SystemResetWarning,0838.8,5.01,000.00,029.1,027.0,000.0,037.6,030.7,33.4,0000.0,0010.33,0005.09,0004.49
2023-07-20 04:51:00,SystemResetWarning,0838.7,4.99,000.00,029.1,027.3,000.0,037.6,030.8,33.5,0000.0,0011.06,0005.05,0004.49
2023-07-20 04:52:00,SystemResetWarning,0838.6,5.00,000.00,029.2,027.5,000.0,037.6,030.8,33.5,0000.0,0010.98,0005.03,0004.48
2023-07-20 04:53:00,SystemResetWarning,0838.6,5.00,000.00,029.2,027.7,000.0,037.6,030.9,33.7,0000.0,0011.04,0005.07,0004.48
2023-07-20 04:54:00,SystemResetWarning,0838.6,5.00,000.00,029.2,027.9,000.0,037.6,030.9,33.8,0000.0,0011.05,0005.06,0004.47
2023-07-20 04:55:00,SystemResetWarning,0838.6,5.01,000.00,029.3,028.1,000.0,037.7,031.0,33.8,0000.0,0010.98,0005.03,0004.46
2023-07-20 04:56:00,SystemResetWarning,0838.6,4.99,000.00,029.3,027.6,000.0,037.6,031.0,33.9,0000.0,0010.42,0005.03,0004.45
2023-07-20 04:57:00,SystemResetWarning,0838.6,4.99,000.00,029.3,026.0,000.0,037.5,030.7,34.2,0000.0,0010.46,0005.04,0004.45
2023-07-20 04:58:00,SystemResetWarning,0838.6,5.01,000.00,029.2,025.5,000.0,037.4,030.6,34.4,0000.0,0009.90,0005.05,0004.46
2023-07-20 04:59:00,SystemResetWarning,0838.6,5.00,000.00,029.1,025.6,000.0,037.5,030.4,34.9,0000.0,0010.17,0005.01,0004.46
